Time,TemperatureF,DewpointF,PressureIn,WindDirection,WindDirectionDegrees,WindSpeedMPH,WindSpeedGustMPH,Humidity,HourlyPrecipIn,Conditions,Clouds,dailyrainin,SoftwareType,DateUTC
2013-08-14 00:03:00,66.6,63.6,30.04,ESE,103,2.0,3.0,90,0.00,,,0.00,Wunderground v.1.15,2013-08-14 05:03:00,
2013-08-14 00:09:00,66.6,63.6,30.04,ENE,59,2.0,4.0,90,0.00,,,0.00,Wunderground v.1.15,2013-08-14 05:09:00,
2013-08-14 00:15:00,66.6,63.6,30.04,NE,42,2.0,3.0,90,0.00,,,0.00,Wunderground v.1.15,2013-08-14 05:15:00,
2013-08-14 00:20:00,66.5,63.5,30.04,NE,51,3.0,3.0,90,0.00,,,0.00,Wunderground v.1.15,2013-08-14 05:20:00,
2013-08-14 00:25:00,66.4,63.4,30.04,East,95,0.0,3.0,90,0.00,,,0.00,Wunderground v.1.15,2013-08-14 05:25:00,
2013-08-14 00:30:00,66.3,63.3,30.04,NE,51,1.0,1.0,90,0.00,,,0.00,Wunderground v.1.15,2013-08-14 05:30:00,
2013-08-14 00:36:00,66.2,63.2,30.04,NE,51,1.0,2.0,90,0.00,,,0.00,Wunderground v.1.15,2013-08-14 05:36:00,
2013-08-14 00:41:00,66.2,63.2,30.04,ENE,70,1.0,1.0,90,0.00,,,0.00,Wunderground v.1.15,2013-08-14 05:41:00,
2013-08-14 00:47:00,66.2,63.2,30.04,East,89,1.0,3.0,90,0.00,,,0.00,Wunderground v.1.15,2013-08-14 05:47:00,
2013-08-14 00:52:00,66.3,63.0,30.04,NE,44,9.0,9.0,89,0.00,,,0.00,Wunderground v.1.15,2013-08-14 05:52:00,
2013-08-14 00:57:00,66.4,63.1,30.04,NE,37,1.0,9.0,89,0.00,,,0.00,Wunderground v.1.15,2013-08-14 05:57:00,
2013-08-14 01:03:00,66.3,63.0,30.04,NNW,345,1.0,2.0,89,0.00,,,0.00,Wunderground v.1.15,2013-08-14 06:03:00,
2013-08-14 01:08:00,66.2,62.5,30.04,NW,308,1.0,3.0,88,0.00,,,0.00,Wunderground v.1.15,2013-08-14 06:08:00,
2013-08-14 01:13:00,66.1,62.4,30.04,SE,134,2.0,4.0,88,0.00,,,0.00,Wunderground v.1.15,2013-08-14 06:13:00,
2013-08-14 01:19:00,65.9,61.9,30.05,ENE,77,2.0,4.0,87,0.00,,,0.00,Wunderground v.1.15,2013-08-14 06:19:00,
2013-08-14 01:24:00,65.8,61.8,30.05,East,89,1.0,5.0,87,0.00,,,0.00,Wunderground v.1.15,2013-08-14 06:24:00,
2013-08-14 01:30:00,65.6,61.6,30.05,East,93,1.0,2.0,87,0.00,,,0.00,Wunderground v.1.15,2013-08-14 06:30:00,
2013-08-14 01:35:00,65.5,61.2,30.05,East,84,4.0,4.0,86,0.00,,,0.00,Wunderground v.1.15,2013-08-14 06:35:00,
2013-08-14 01:40:00,65.4,61.1,30.05,ENE,65,3.0,3.0,86,0.00,,,0.00,Wunderground v.1.15,2013-08-14 06:40:00,
2013-08-14 01:46:00,65.1,60.8,30.06,SSE,150,1.0,3.0,86,0.00,,,0.00,Wunderground v.1.15,2013-08-14 06:46:00,
2013-08-14 01:51:00,65.0,60.7,30.06,NE,50,5.0,5.0,86,0.00,,,0.00,Wunderground v.1.15,2013-08-14 06:51:00,
2013-08-14 01:57:00,64.9,60.3,30.06,ENE,78,3.0,6.0,85,0.00,,,0.00,Wunderground v.1.15,2013-08-14 06:57:00,
2013-08-14 02:02:00,64.8,59.9,30.06,ESE,103,2.0,4.0,84,0.00,,,0.00,Wunderground v.1.15,2013-08-14 07:02:00,
2013-08-14 02:07:00,64.6,59.7,30.06,East,96,2.0,4.0,84,0.00,,,0.00,Wunderground v.1.15,2013-08-14 07:07:00,
2013-08-14 02:12:00,64.4,59.1,30.06,East,96,0.0,2.0,83,0.00,,,0.00,Wunderground v.1.15,2013-08-14 07:12:00,
2013-08-14 02:17:00,64.3,59.0,30.06,ENE,67,1.0,6.0,83,0.00,,,0.00,Wunderground v.1.15,2013-08-14 07:17:00,
2013-08-14 02:22:00,64.1,58.5,30.06,ENE,78,1.0,4.0,82,0.00,,,0.00,Wunderground v.1.15,2013-08-14 07:22:00,
2013-08-14 02:27:00,63.9,58.6,30.06,SE,129,1.0,4.0,83,0.00,,,0.00,Wunderground v.1.15,2013-08-14 07:27:00,
2013-08-14 02:32:00,63.6,58.3,30.06,NE,44,2.0,2.0,83,0.00,,,0.00,Wunderground v.1.15,2013-08-14 07:32:00,
2013-08-14 02:37:00,63.3,58.4,30.06,ENE,57,0.0,3.0,84,0.00,,,0.00,Wunderground v.1.15,2013-08-14 07:37:00,
2013-08-14 02:42:00,63.1,58.2,30.06,ENE,63,2.0,4.0,84,0.00,,,0.00,Wunderground v.1.15,2013-08-14 07:42:00,
2013-08-14 02:47:00,63.0,58.1,30.06,SE,145,0.0,4.0,84,0.00,,,0.00,Wunderground v.1.15,2013-08-14 07:47:00,
2013-08-14 02:52:00,62.8,57.6,30.07,ENE,63,2.0,6.0,83,0.00,,,0.00,Wunderground v.1.15,2013-08-14 07:52:00,
2013-08-14 02:57:00,62.6,57.0,30.07,SE,139,0.0,6.0,82,0.00,,,0.00,Wunderground v.1.15,2013-08-14 07:57:00,
2013-08-14 03:02:00,62.4,56.8,30.07,East,89,1.0,4.0,82,0.00,,,0.00,Wunderground v.1.15,2013-08-14 08:02:00,
2013-08-14 03:07:00,62.3,56.7,30.06,ENE,66,4.0,7.0,82,0.00,,,0.00,Wunderground v.1.15,2013-08-14 08:07:00,
2013-08-14 03:12:00,62.1,56.5,30.07,ENE,63,3.0,6.0,82,0.00,,,0.00,Wunderground v.1.15,2013-08-14 08:12:00,
2013-08-14 03:17:00,62.0,56.4,30.07,ENE,78,3.0,6.0,82,0.00,,,0.00,Wunderground v.1.15,2013-08-14 08:17:00,
2013-08-14 03:22:00,61.8,56.2,30.07,NE,56,1.0,5.0,82,0.00,,,0.00,Wunderground v.1.15,2013-08-14 08:22:00,
2013-08-14 03:27:00,61.6,56.4,30.06,East,84,0.0,6.0,83,0.00,,,0.00,Wunderground v.1.15,2013-08-14 08:27:00,
2013-08-14 03:32:00,61.4,56.2,30.06,NNE,31,3.0,3.0,83,0.00,,,0.00,Wunderground v.1.15,2013-08-14 08:32:00,
2013-08-14 03:37:00,61.2,56.0,30.06,East,87,3.0,6.0,83,0.00,,,0.00,Wunderground v.1.15,2013-08-14 08:37:00,
2013-08-14 03:42:00,61.1,55.6,30.06,East,96,2.0,4.0,82,0.00,,,0.00,Wunderground v.1.15,2013-08-14 08:42:00,
2013-08-14 03:47:00,60.9,55.4,30.06,NE,49,5.0,6.0,82,0.00,,,0.00,Wunderground v.1.15,2013-08-14 08:47:00,
2013-08-14 03:52:00,60.8,55.3,30.06,East,101,0.0,3.0,82,0.00,,,0.00,Wunderground v.1.15,2013-08-14 08:52:00,
2013-08-14 03:57:00,60.6,55.1,30.06,East,96,1.0,3.0,82,0.00,,,0.00,Wunderground v.1.15,2013-08-14 08:57:00,
2013-08-14 04:02:00,60.5,55.0,30.06,ESE,118,2.0,5.0,82,0.00,,,0.00,Wunderground v.1.15,2013-08-14 09:02:00,
2013-08-14 04:07:00,60.4,54.9,30.07,NNE,30,3.0,5.0,82,0.00,,,0.00,Wunderground v.1.15,2013-08-14 09:07:00,
2013-08-14 04:12:00,60.3,54.8,30.07,SSE,149,0.0,6.0,82,0.00,,,0.00,Wunderground v.1.15,2013-08-14 09:12:00,
2013-08-14 04:17:00,60.1,54.2,30.07,East,94,0.0,6.0,81,0.00,,,0.00,Wunderground v.1.15,2013-08-14 09:17:00,
2013-08-14 04:23:00,60.0,54.2,30.07,ESE,102,0.0,6.0,81,0.00,,,0.00,Wunderground v.1.15,2013-08-14 09:23:00,
2013-08-14 04:28:00,59.9,54.1,30.07,ESE,115,1.0,6.0,81,0.00,,,0.00,Wunderground v.1.15,2013-08-14 09:28:00,
2013-08-14 04:33:00,59.8,54.0,30.07,ESE,103,1.0,6.0,81,0.00,,,0.00,Wunderground v.1.15,2013-08-14 09:33:00,
2013-08-14 04:38:00,59.6,53.8,30.07,ESE,105,0.0,6.0,81,0.00,,,0.00,Wunderground v.1.15,2013-08-14 09:38:00,
2013-08-14 04:43:00,59.5,54.0,30.07,ESE,105,2.0,4.0,82,0.00,,,0.00,Wunderground v.1.15,2013-08-14 09:43:00,
2013-08-14 04:48:00,59.4,53.9,30.07,ENE,75,0.0,4.0,82,0.00,,,0.00,Wunderground v.1.15,2013-08-14 09:48:00,
2013-08-14 04:53:00,59.1,53.6,30.08,ENE,60,1.0,4.0,82,0.00,,,0.00,Wunderground v.1.15,2013-08-14 09:53:00,
2013-08-14 04:58:00,58.9,53.7,30.08,NE,55,2.0,4.0,83,0.00,,,0.00,Wunderground v.1.15,2013-08-14 09:58:00,
2013-08-14 05:03:00,58.7,53.9,30.08,NE,50,4.0,4.0,84,0.00,,,0.00,Wunderground v.1.15,2013-08-14 10:03:00,
2013-08-14 05:08:00,58.7,53.9,30.08,ENE,63,2.0,5.0,84,0.00,,,0.00,Wunderground v.1.15,2013-08-14 10:08:00,
2013-08-14 05:13:00,58.6,53.8,30.08,NNE,27,2.0,4.0,84,0.00,,,0.00,Wunderground v.1.15,2013-08-14 10:13:00,
2013-08-14 05:18:00,58.4,53.9,30.08,East,98,3.0,5.0,85,0.00,,,0.00,Wunderground v.1.15,2013-08-14 10:18:00,
2013-08-14 05:23:00,58.4,53.9,30.08,ESE,104,0.0,4.0,85,0.00,,,0.00,Wunderground v.1.15,2013-08-14 10:23:00,
2013-08-14 05:28:00,58.3,53.8,30.09,East,89,1.0,6.0,85,0.00,,,0.00,Wunderground v.1.15,2013-08-14 10:28:00,
2013-08-14 05:33:00,58.2,53.7,30.08,ENE,67,0.0,5.0,85,0.00,,,0.00,Wunderground v.1.15,2013-08-14 10:33:00,
2013-08-14 05:38:00,58.0,53.8,30.08,ENE,69,0.0,5.0,86,0.00,,,0.00,Wunderground v.1.15,2013-08-14 10:38:00,
2013-08-14 05:43:00,57.8,53.6,30.09,ESE,102,0.0,3.0,86,0.00,,,0.00,Wunderground v.1.15,2013-08-14 10:43:00,
2013-08-14 05:48:00,57.7,53.5,30.09,ENE,68,0.0,4.0,86,0.00,,,0.00,Wunderground v.1.15,2013-08-14 10:48:00,
2013-08-14 05:53:00,57.6,53.4,30.09,NE,51,5.0,5.0,86,0.00,,,0.00,Wunderground v.1.15,2013-08-14 10:53:00,
2013-08-14 05:58:00,57.5,53.3,30.09,NE,49,0.0,5.0,86,0.00,,,0.00,Wunderground v.1.15,2013-08-14 10:58:00,
2013-08-14 06:03:00,57.4,53.6,30.09,SE,143,0.0,2.0,87,0.00,,,0.00,Wunderground v.1.15,2013-08-14 11:03:00,
2013-08-14 06:08:00,57.2,53.4,30.10,ENE,66,0.0,3.0,87,0.00,,,0.00,Wunderground v.1.15,2013-08-14 11:08:00,
2013-08-14 06:13:00,57.1,53.3,30.10,ENE,66,1.0,3.0,87,0.00,,,0.00,Wunderground v.1.15,2013-08-14 11:13:00,
2013-08-14 06:18:00,57.1,53.3,30.10,NE,50,3.0,4.0,87,0.00,,,0.00,Wunderground v.1.15,2013-08-14 11:18:00,
2013-08-14 06:23:00,57.0,53.5,30.10,ENE,71,0.0,4.0,88,0.00,,,0.00,Wunderground v.1.15,2013-08-14 11:23:00,
2013-08-14 06:28:00,57.0,53.5,30.10,NE,48,2.0,4.0,88,0.00,,,0.00,Wunderground v.1.15,2013-08-14 11:28:00,
2013-08-14 06:33:00,56.9,53.4,30.11,ENE,77,0.0,3.0,88,0.00,,,0.00,Wunderground v.1.15,2013-08-14 11:33:00,
2013-08-14 06:39:00,57.0,53.5,30.11,ENE,61,0.0,4.0,88,0.00,,,0.00,Wunderground v.1.15,2013-08-14 11:39:00,
2013-08-14 06:44:00,57.4,53.6,30.11,East,79,0.0,5.0,87,0.00,,,0.00,Wunderground v.1.15,2013-08-14 11:44:00,
2013-08-14 06:49:00,57.8,54.0,30.11,SE,129,0.0,5.0,87,0.00,,,0.00,Wunderground v.1.15,2013-08-14 11:49:00,
2013-08-14 06:54:00,58.2,54.0,30.11,East,94,1.0,3.0,86,0.00,,,0.00,Wunderground v.1.15,2013-08-14 11:54:00,
2013-08-14 06:59:00,58.5,54.0,30.11,ENE,64,1.0,4.0,85,0.00,,,0.00,Wunderground v.1.15,2013-08-14 11:59:00,
2013-08-14 07:04:00,58.7,53.9,30.11,ENE,67,0.0,2.0,84,0.00,,,0.00,Wunderground v.1.15,2013-08-14 12:04:00,
2013-08-14 07:09:00,58.9,54.1,30.12,East,91,5.0,5.0,84,0.00,,,0.00,Wunderground v.1.15,2013-08-14 12:09:00,
2013-08-14 07:14:00,58.8,54.0,30.11,SE,139,2.0,5.0,84,0.00,,,0.00,Wunderground v.1.15,2013-08-14 12:14:00,
2013-08-14 07:19:00,59.0,54.2,30.12,ESE,112,1.0,7.0,84,0.00,,,0.00,Wunderground v.1.15,2013-08-14 12:19:00,
2013-08-14 07:24:00,59.4,54.6,30.12,SE,145,2.0,4.0,84,0.00,,,0.00,Wunderground v.1.15,2013-08-14 12:24:00,
2013-08-14 07:29:00,59.5,54.3,30.12,ESE,117,3.0,7.0,83,0.00,,,0.00,Wunderground v.1.15,2013-08-14 12:29:00,
2013-08-14 07:34:00,59.7,54.5,30.12,East,82,1.0,6.0,83,0.00,,,0.00,Wunderground v.1.15,2013-08-14 12:34:00,
2013-08-14 07:39:00,60.0,54.5,30.12,SE,128,2.0,8.0,82,0.00,,,0.00,Wunderground v.1.15,2013-08-14 12:39:00,
2013-08-14 07:44:00,60.1,54.6,30.12,ENE,71,3.0,7.0,82,0.00,,,0.00,Wunderground v.1.15,2013-08-14 12:44:00,
2013-08-14 07:49:00,60.4,54.9,30.12,NE,51,2.0,7.0,82,0.00,,,0.00,Wunderground v.1.15,2013-08-14 12:49:00,
2013-08-14 07:54:00,60.5,54.6,30.12,NNE,22,2.0,6.0,81,0.00,,,0.00,Wunderground v.1.15,2013-08-14 12:54:00,
2013-08-14 07:59:00,60.8,54.6,30.12,East,98,3.0,3.0,80,0.00,,,0.00,Wunderground v.1.15,2013-08-14 12:59:00,
2013-08-14 08:04:00,61.1,55.2,30.13,East,101,1.0,5.0,81,0.00,,,0.00,Wunderground v.1.15,2013-08-14 13:04:00,
2013-08-14 08:09:00,61.3,55.1,30.13,East,101,2.0,3.0,80,0.00,,,0.00,Wunderground v.1.15,2013-08-14 13:09:00,
2013-08-14 08:15:00,61.6,55.0,30.13,ESE,108,3.0,7.0,79,0.00,,,0.00,Wunderground v.1.15,2013-08-14 13:15:00,
2013-08-14 08:20:00,61.7,55.1,30.13,East,82,1.0,4.0,79,0.00,,,0.00,Wunderground v.1.15,2013-08-14 13:20:00,
2013-08-14 08:25:00,62.1,54.8,30.13,ESE,117,7.0,10.0,77,0.00,,,0.00,Wunderground v.1.15,2013-08-14 13:25:00,
2013-08-14 08:30:00,62.2,54.9,30.13,ENE,65,5.0,5.0,77,0.00,,,0.00,Wunderground v.1.15,2013-08-14 13:30:00,
2013-08-14 08:35:00,62.5,55.2,30.13,NE,36,6.0,8.0,77,0.00,,,0.00,Wunderground v.1.15,2013-08-14 13:35:00,
2013-08-14 08:40:00,62.7,55.4,30.13,ENE,78,2.0,3.0,77,0.00,,,0.00,Wunderground v.1.15,2013-08-14 13:40:00,
2013-08-14 08:45:00,63.1,55.4,30.13,NNE,27,3.0,5.0,76,0.00,,,0.00,Wunderground v.1.15,2013-08-14 13:45:00,
2013-08-14 08:50:00,63.2,54.8,30.12,East,97,5.0,5.0,74,0.00,,,0.00,Wunderground v.1.15,2013-08-14 13:50:00,
2013-08-14 08:55:00,63.4,55.3,30.12,ESE,105,3.0,7.0,75,0.00,,,0.00,Wunderground v.1.15,2013-08-14 13:55:00,
2013-08-14 09:00:00,63.9,55.4,30.12,East,86,4.0,4.0,74,0.00,,,0.00,Wunderground v.1.15,2013-08-14 14:00:00,
2013-08-14 09:05:00,64.3,56.2,30.13,ESE,105,2.0,9.0,75,0.00,,,0.00,Wunderground v.1.15,2013-08-14 14:05:00,
2013-08-14 09:10:00,64.7,55.8,30.13,ENE,63,1.0,7.0,73,0.00,,,0.00,Wunderground v.1.15,2013-08-14 14:10:00,
2013-08-14 09:15:00,65.0,55.8,30.13,SE,133,3.0,7.0,72,0.00,,,0.00,Wunderground v.1.15,2013-08-14 14:15:00,
2013-08-14 09:20:00,65.4,55.7,30.13,East,96,2.0,4.0,71,0.00,,,0.00,Wunderground v.1.15,2013-08-14 14:20:00,
2013-08-14 09:26:00,65.6,55.9,30.13,ESE,115,2.0,9.0,71,0.00,,,0.00,Wunderground v.1.15,2013-08-14 14:26:00,
2013-08-14 09:31:00,65.8,56.1,30.13,ESE,115,8.0,8.0,71,0.00,,,0.00,Wunderground v.1.15,2013-08-14 14:31:00,
2013-08-14 09:36:00,66.1,56.4,30.13,East,98,1.0,8.0,71,0.00,,,0.00,Wunderground v.1.15,2013-08-14 14:36:00,
2013-08-14 09:41:00,66.5,56.4,30.13,East,89,4.0,4.0,70,0.00,,,0.00,Wunderground v.1.15,2013-08-14 14:41:00,
2013-08-14 09:46:00,66.8,56.7,30.13,NNE,15,3.0,7.0,70,0.00,,,0.00,Wunderground v.1.15,2013-08-14 14:46:00,
2013-08-14 09:51:00,67.1,56.2,30.13,SW,221,2.0,7.0,68,0.00,,,0.00,Wunderground v.1.15,2013-08-14 14:51:00,
2013-08-14 09:56:00,67.3,56.8,30.13,SE,124,3.0,8.0,69,0.00,,,0.00,Wunderground v.1.15,2013-08-14 14:56:00,
2013-08-14 10:01:00,67.6,56.7,30.13,East,79,2.0,4.0,68,0.00,,,0.00,Wunderground v.1.15,2013-08-14 15:01:00,
2013-08-14 10:06:00,67.9,56.9,30.13,ESE,114,2.0,8.0,68,0.00,,,0.00,Wunderground v.1.15,2013-08-14 15:06:00,
2013-08-14 10:11:00,68.2,56.0,30.13,East,86,3.0,8.0,65,0.00,,,0.00,Wunderground v.1.15,2013-08-14 15:11:00,
2013-08-14 10:16:00,68.6,56.4,30.13,NNE,29,4.0,8.0,65,0.00,,,0.00,Wunderground v.1.15,2013-08-14 15:16:00,
2013-08-14 10:21:00,68.5,55.0,30.14,NNE,32,4.0,10.0,62,0.00,,,0.00,Wunderground v.1.15,2013-08-14 15:21:00,
2013-08-14 10:26:00,68.7,54.7,30.14,NE,47,4.0,13.0,61,0.00,,,0.00,Wunderground v.1.15,2013-08-14 15:26:00,
2013-08-14 10:31:00,68.9,54.9,30.14,East,94,6.0,12.0,61,0.00,,,0.00,Wunderground v.1.15,2013-08-14 15:31:00,
2013-08-14 10:36:00,68.6,55.9,30.14,ESE,110,1.0,12.0,64,0.00,,,0.00,Wunderground v.1.15,2013-08-14 15:36:00,
2013-08-14 10:41:00,68.8,54.3,30.14,East,82,3.0,7.0,60,0.00,,,0.00,Wunderground v.1.15,2013-08-14 15:41:00,
2013-08-14 10:46:00,68.9,54.4,30.14,East,83,6.0,11.0,60,0.00,,,0.00,Wunderground v.1.15,2013-08-14 15:46:00,
2013-08-14 10:51:00,69.1,55.1,30.14,NE,51,4.0,11.0,61,0.00,,,0.00,Wunderground v.1.15,2013-08-14 15:51:00,
2013-08-14 10:56:00,69.2,54.7,30.14,East,81,7.0,11.0,60,0.00,,,0.00,Wunderground v.1.15,2013-08-14 15:56:00,
2013-08-14 11:01:00,69.2,55.2,30.14,ESE,105,1.0,6.0,61,0.00,,,0.00,Wunderground v.1.15,2013-08-14 16:01:00,
2013-08-14 11:06:00,69.6,55.1,30.13,NE,56,4.0,9.0,60,0.00,,,0.00,Wunderground v.1.15,2013-08-14 16:06:00,
2013-08-14 11:11:00,69.9,55.4,30.13,NE,46,2.0,4.0,60,0.00,,,0.00,Wunderground v.1.15,2013-08-14 16:11:00,
2013-08-14 11:16:00,70.1,55.6,30.13,ESE,108,7.0,10.0,60,0.00,,,0.00,Wunderground v.1.15,2013-08-14 16:16:00,
2013-08-14 11:21:00,70.2,54.7,30.13,East,85,6.0,8.0,58,0.00,,,0.00,Wunderground v.1.15,2013-08-14 16:21:00,
2013-08-14 11:26:00,70.3,54.8,30.13,SE,127,3.0,13.0,58,0.00,,,0.00,Wunderground v.1.15,2013-08-14 16:26:00,
2013-08-14 11:31:00,70.7,55.2,30.12,ESE,103,4.0,9.0,58,0.00,,,0.00,Wunderground v.1.15,2013-08-14 16:31:00,
2013-08-14 11:36:00,70.8,55.8,30.13,NE,43,12.0,14.0,59,0.00,,,0.00,Wunderground v.1.15,2013-08-14 16:36:00,
2013-08-14 11:41:00,70.7,54.7,30.13,SE,136,3.0,9.0,57,0.00,,,0.00,Wunderground v.1.15,2013-08-14 16:41:00,
2013-08-14 11:46:00,70.6,55.1,30.13,ESE,110,6.0,13.0,58,0.00,,,0.00,Wunderground v.1.15,2013-08-14 16:46:00,
2013-08-14 11:52:00,70.8,54.8,30.13,SSE,155,1.0,10.0,57,0.00,,,0.00,Wunderground v.1.15,2013-08-14 16:52:00,
2013-08-14 11:57:00,70.7,54.2,30.12,NE,46,5.0,12.0,56,0.00,,,0.00,Wunderground v.1.15,2013-08-14 16:57:00,
2013-08-14 12:02:00,70.8,54.8,30.12,NE,43,7.0,11.0,57,0.00,,,0.00,Wunderground v.1.15,2013-08-14 17:02:00,
2013-08-14 12:07:00,71.0,55.0,30.12,ESE,105,5.0,11.0,57,0.00,,,0.00,Wunderground v.1.15,2013-08-14 17:07:00,
2013-08-14 12:12:00,71.3,53.3,30.13,SSE,158,4.0,11.0,53,0.00,,,0.00,Wunderground v.1.15,2013-08-14 17:12:00,
2013-08-14 12:17:00,71.2,52.7,30.13,East,100,10.0,12.0,52,0.00,,,0.00,Wunderground v.1.15,2013-08-14 17:17:00,
2013-08-14 12:22:00,71.2,52.7,30.13,South,171,3.0,12.0,52,0.00,,,0.00,Wunderground v.1.15,2013-08-14 17:22:00,
2013-08-14 12:27:00,71.6,53.6,30.13,ENE,61,4.0,12.0,53,0.00,,,0.00,Wunderground v.1.15,2013-08-14 17:27:00,
2013-08-14 12:32:00,71.8,53.2,30.13,East,94,5.0,9.0,52,0.00,,,0.00,Wunderground v.1.15,2013-08-14 17:32:00,
2013-08-14 12:38:00,72.0,54.4,30.13,NNE,15,3.0,9.0,54,0.00,,,0.00,Wunderground v.1.15,2013-08-14 17:38:00,
2013-08-14 12:43:00,72.4,55.3,30.13,ESE,114,6.0,6.0,55,0.00,,,0.00,Wunderground v.1.15,2013-08-14 17:43:00,
2013-08-14 12:48:00,72.6,55.5,30.13,NE,49,5.0,7.0,55,0.00,,,0.00,Wunderground v.1.15,2013-08-14 17:48:00,
2013-08-14 12:53:00,72.6,55.0,30.13,ENE,75,2.0,8.0,54,0.00,,,0.00,Wunderground v.1.15,2013-08-14 17:53:00,
2013-08-14 12:58:00,72.8,53.1,30.12,SE,135,5.0,9.0,50,0.00,,,0.00,Wunderground v.1.15,2013-08-14 17:58:00,
2013-08-14 13:03:00,72.8,55.2,30.13,NE,51,8.0,8.0,54,0.00,,,0.00,Wunderground v.1.15,2013-08-14 18:03:00,
2013-08-14 13:08:00,72.8,54.7,30.12,NE,56,6.0,9.0,53,0.00,,,0.00,Wunderground v.1.15,2013-08-14 18:08:00,
2013-08-14 13:14:00,72.4,54.8,30.12,NE,38,5.0,8.0,54,0.00,,,0.00,Wunderground v.1.15,2013-08-14 18:14:00,
2013-08-14 13:19:00,72.5,56.4,30.12,NE,49,2.0,9.0,57,0.00,,,0.00,Wunderground v.1.15,2013-08-14 18:19:00,
2013-08-14 13:24:00,72.7,55.6,30.12,ESE,123,1.0,9.0,55,0.00,,,0.00,Wunderground v.1.15,2013-08-14 18:24:00,
2013-08-14 13:29:00,73.0,56.4,30.12,SE,126,6.0,10.0,56,0.00,,,0.00,Wunderground v.1.15,2013-08-14 18:29:00,
2013-08-14 13:34:00,72.9,55.8,30.12,NE,43,6.0,7.0,55,0.00,,,0.00,Wunderground v.1.15,2013-08-14 18:34:00,
2013-08-14 13:39:00,72.9,54.8,30.11,ENE,75,5.0,10.0,53,0.00,,,0.00,Wunderground v.1.15,2013-08-14 18:39:00,
2013-08-14 13:44:00,73.6,56.9,30.12,ESE,103,4.0,6.0,56,0.00,,,0.00,Wunderground v.1.15,2013-08-14 18:44:00,
2013-08-14 13:49:00,73.6,55.9,30.12,NE,37,1.0,8.0,54,0.00,,,0.00,Wunderground v.1.15,2013-08-14 18:49:00,
2013-08-14 13:54:00,73.6,55.9,30.11,NNE,33,4.0,8.0,54,0.00,,,0.00,Wunderground v.1.15,2013-08-14 18:54:00,
2013-08-14 14:00:00,74.1,55.3,30.12,NE,53,3.0,3.0,52,0.00,,,0.00,Wunderground v.1.15,2013-08-14 19:00:00,
2013-08-14 14:05:00,73.6,54.4,30.12,NE,48,3.0,14.0,51,0.00,,,0.00,Wunderground v.1.15,2013-08-14 19:05:00,
2013-08-14 14:13:00,73.6,54.9,30.11,NE,49,5.0,7.0,52,0.00,,,0.00,Wunderground v.1.15,2013-08-14 19:13:00,
2013-08-14 14:18:00,73.8,55.6,30.11,East,84,4.0,8.0,53,0.00,,,0.00,Wunderground v.1.15,2013-08-14 19:18:00,
2013-08-14 14:23:00,73.8,54.0,30.11,ESE,110,5.0,10.0,50,0.00,,,0.00,Wunderground v.1.15,2013-08-14 19:23:00,
2013-08-14 14:28:00,73.9,54.1,30.11,ENE,58,11.0,11.0,50,0.00,,,0.00,Wunderground v.1.15,2013-08-14 19:28:00,
2013-08-14 14:34:00,73.4,54.2,30.11,NE,44,5.0,9.0,51,0.00,,,0.00,Wunderground v.1.15,2013-08-14 19:34:00,
2013-08-14 14:38:00,73.8,55.1,30.11,ESE,120,5.0,9.0,52,0.00,,,0.00,Wunderground v.1.15,2013-08-14 19:38:00,
2013-08-14 14:44:00,74.3,57.1,30.11,NNE,29,2.0,7.0,55,0.00,,,0.00,Wunderground v.1.15,2013-08-14 19:44:00,
2013-08-14 14:49:00,74.2,56.5,30.11,NE,51,8.0,10.0,54,0.00,,,0.00,Wunderground v.1.15,2013-08-14 19:49:00,
2013-08-14 14:54:00,74.1,55.9,30.11,ESE,110,3.0,9.0,53,0.00,,,0.00,Wunderground v.1.15,2013-08-14 19:54:00,
2013-08-14 14:59:00,74.4,57.7,30.11,North,5,4.0,9.0,56,0.00,,,0.00,Wunderground v.1.15,2013-08-14 19:59:00,
2013-08-14 15:04:00,74.1,56.9,30.10,NE,41,5.0,9.0,55,0.00,,,0.00,Wunderground v.1.15,2013-08-14 20:04:00,
2013-08-14 15:09:00,74.3,55.5,30.10,ESE,117,2.0,9.0,52,0.00,,,0.00,Wunderground v.1.15,2013-08-14 20:09:00,
2013-08-14 15:14:00,74.7,55.9,30.10,ENE,78,4.0,8.0,52,0.00,,,0.00,Wunderground v.1.15,2013-08-14 20:14:00,
2013-08-14 15:22:00,74.2,56.0,30.10,ENE,68,10.0,10.0,53,0.00,,,0.00,Wunderground v.1.15,2013-08-14 20:22:00,
2013-08-14 15:27:00,73.9,55.2,30.10,NE,48,4.0,12.0,52,0.00,,,0.00,Wunderground v.1.15,2013-08-14 20:27:00,
2013-08-14 15:32:00,74.0,55.8,30.10,NW,312,3.0,8.0,53,0.00,,,0.00,Wunderground v.1.15,2013-08-14 20:32:00,
2013-08-14 15:37:00,74.3,55.5,30.10,ENE,61,5.0,8.0,52,0.00,,,0.00,Wunderground v.1.15,2013-08-14 20:37:00,
2013-08-14 15:43:00,74.6,55.3,30.09,NE,34,4.0,8.0,51,0.00,,,0.00,Wunderground v.1.15,2013-08-14 20:43:00,
2013-08-14 15:48:00,74.1,54.3,30.09,NE,49,6.0,10.0,50,0.00,,,0.00,Wunderground v.1.15,2013-08-14 20:48:00,
2013-08-14 15:53:00,74.2,56.0,30.09,NE,51,3.0,8.0,53,0.00,,,0.00,Wunderground v.1.15,2013-08-14 20:53:00,
2013-08-14 15:58:00,74.3,54.5,30.09,SE,127,2.0,10.0,50,0.00,,,0.00,Wunderground v.1.15,2013-08-14 20:58:00,
2013-08-14 16:03:00,74.4,55.1,30.09,East,81,5.0,7.0,51,0.00,,,0.00,Wunderground v.1.15,2013-08-14 21:03:00,
2013-08-14 16:08:00,74.3,54.5,30.09,NE,49,4.0,9.0,50,0.00,,,0.00,Wunderground v.1.15,2013-08-14 21:08:00,
2013-08-14 16:13:00,74.5,55.2,30.09,East,79,2.0,8.0,51,0.00,,,0.00,Wunderground v.1.15,2013-08-14 21:13:00,
2013-08-14 16:18:00,74.5,55.2,30.09,ESE,105,7.0,9.0,51,0.00,,,0.00,Wunderground v.1.15,2013-08-14 21:18:00,
2013-08-14 16:23:00,74.4,54.5,30.09,NE,51,3.0,11.0,50,0.00,,,0.00,Wunderground v.1.15,2013-08-14 21:23:00,
2013-08-14 16:28:00,74.2,54.4,30.09,North,7,7.0,13.0,50,0.00,,,0.00,Wunderground v.1.15,2013-08-14 21:28:00,
2013-08-14 16:34:00,74.0,54.7,30.09,ENE,67,4.0,10.0,51,0.00,,,0.00,Wunderground v.1.15,2013-08-14 21:34:00,
2013-08-14 16:39:00,74.2,53.8,30.09,SE,132,5.0,10.0,49,0.00,,,0.00,Wunderground v.1.15,2013-08-14 21:39:00,
2013-08-14 16:44:00,74.4,56.2,30.09,NNE,30,6.0,7.0,53,0.00,,,0.00,Wunderground v.1.15,2013-08-14 21:44:00,
2013-08-14 16:50:00,74.6,55.3,30.09,ENE,65,3.0,3.0,51,0.00,,,0.00,Wunderground v.1.15,2013-08-14 21:50:00,
2013-08-14 16:55:00,74.4,55.6,30.09,NNW,328,2.0,10.0,52,0.00,,,0.00,Wunderground v.1.15,2013-08-14 21:55:00,
2013-08-14 17:00:00,74.2,56.0,30.09,East,94,3.0,4.0,53,0.00,,,0.00,Wunderground v.1.15,2013-08-14 22:00:00,
2013-08-14 17:05:00,74.0,55.8,30.09,NE,48,4.0,9.0,53,0.00,,,0.00,Wunderground v.1.15,2013-08-14 22:05:00,
2013-08-14 17:10:00,74.4,56.7,30.09,ENE,67,3.0,7.0,54,0.00,,,0.00,Wunderground v.1.15,2013-08-14 22:10:00,
2013-08-14 17:15:00,73.8,55.6,30.09,NNE,30,3.0,10.0,53,0.00,,,0.00,Wunderground v.1.15,2013-08-14 22:15:00,
2013-08-14 17:20:00,73.4,55.2,30.09,ESE,118,2.0,10.0,53,0.00,,,0.00,Wunderground v.1.15,2013-08-14 22:20:00,
2013-08-14 17:25:00,73.6,55.4,30.09,NE,40,7.0,10.0,53,0.00,,,0.00,Wunderground v.1.15,2013-08-14 22:25:00,
2013-08-14 17:31:00,73.4,56.2,30.09,ENE,63,8.0,8.0,55,0.00,,,0.00,Wunderground v.1.15,2013-08-14 22:31:00,
2013-08-14 17:36:00,73.3,55.1,30.09,ENE,71,1.0,9.0,53,0.00,,,0.00,Wunderground v.1.15,2013-08-14 22:36:00,
2013-08-14 17:41:00,73.2,55.6,30.09,NE,53,2.0,5.0,54,0.00,,,0.00,Wunderground v.1.15,2013-08-14 22:41:00,
2013-08-14 17:46:00,73.3,55.6,30.09,ENE,61,5.0,6.0,54,0.00,,,0.00,Wunderground v.1.15,2013-08-14 22:46:00,
2013-08-14 17:51:00,73.1,54.9,30.09,NE,43,1.0,9.0,53,0.00,,,0.00,Wunderground v.1.15,2013-08-14 22:51:00,
2013-08-14 17:56:00,72.9,55.3,30.08,ENE,61,5.0,9.0,54,0.00,,,0.00,Wunderground v.1.15,2013-08-14 22:56:00,
2013-08-14 18:01:00,72.6,54.0,30.08,ENE,57,4.0,5.0,52,0.00,,,0.00,Wunderground v.1.15,2013-08-14 23:01:00,
2013-08-14 18:07:00,72.3,54.7,30.08,NE,47,2.0,9.0,54,0.00,,,0.00,Wunderground v.1.15,2013-08-14 23:07:00,
2013-08-14 18:12:00,72.2,54.6,30.08,NE,56,7.0,9.0,54,0.00,,,0.00,Wunderground v.1.15,2013-08-14 23:12:00,
2013-08-14 18:17:00,72.1,55.0,30.08,ENE,78,4.0,9.0,55,0.00,,,0.00,Wunderground v.1.15,2013-08-14 23:17:00,
2013-08-14 18:22:00,72.3,54.7,30.08,NE,53,6.0,7.0,54,0.00,,,0.00,Wunderground v.1.15,2013-08-14 23:22:00,
2013-08-14 18:27:00,72.0,54.9,30.08,East,89,2.0,9.0,55,0.00,,,0.00,Wunderground v.1.15,2013-08-14 23:27:00,
2013-08-14 18:32:00,72.1,55.5,30.08,NE,34,3.0,5.0,56,0.00,,,0.00,Wunderground v.1.15,2013-08-14 23:32:00,
2013-08-14 18:37:00,71.8,54.8,30.08,NNE,33,3.0,9.0,55,0.00,,,0.00,Wunderground v.1.15,2013-08-14 23:37:00,
2013-08-14 18:42:00,71.4,54.9,30.08,NE,56,6.0,6.0,56,0.00,,,0.00,Wunderground v.1.15,2013-08-14 23:42:00,
2013-08-14 18:47:00,71.2,54.7,30.08,ENE,57,0.0,6.0,56,0.00,,,0.00,Wunderground v.1.15,2013-08-14 23:47:00,
2013-08-14 18:52:00,71.2,55.2,30.08,NE,56,4.0,5.0,57,0.00,,,0.00,Wunderground v.1.15,2013-08-14 23:52:00,
2013-08-14 18:57:00,71.2,55.7,30.08,NE,36,1.0,5.0,58,0.00,,,0.00,Wunderground v.1.15,2013-08-14 23:57:00,
2013-08-14 19:02:00,71.0,55.0,30.08,NE,50,3.0,4.0,57,0.00,,,0.00,Wunderground v.1.15,2013-08-15 00:02:00,
2013-08-14 19:07:00,70.8,55.3,30.08,NE,43,3.0,6.0,58,0.00,,,0.00,Wunderground v.1.15,2013-08-15 00:07:00,
2013-08-14 19:12:00,70.5,55.0,30.08,ESE,108,1.0,5.0,58,0.00,,,0.00,Wunderground v.1.15,2013-08-15 00:12:00,
2013-08-14 19:17:00,70.1,55.6,30.08,NE,56,1.0,5.0,60,0.00,,,0.00,Wunderground v.1.15,2013-08-15 00:17:00,
2013-08-14 19:22:00,69.7,55.2,30.08,NE,47,2.0,3.0,60,0.00,,,0.00,Wunderground v.1.15,2013-08-15 00:22:00,
2013-08-14 19:27:00,69.2,55.2,30.08,ENE,75,2.0,6.0,61,0.00,,,0.00,Wunderground v.1.15,2013-08-15 00:27:00,
2013-08-14 19:33:00,68.7,55.2,30.08,NE,53,3.0,3.0,62,0.00,,,0.00,Wunderground v.1.15,2013-08-15 00:33:00,
2013-08-14 19:38:00,68.2,54.7,30.08,ENE,63,1.0,4.0,62,0.00,,,0.00,Wunderground v.1.15,2013-08-15 00:38:00,
2013-08-14 19:43:00,67.7,54.6,30.08,NE,49,4.0,4.0,63,0.00,,,0.00,Wunderground v.1.15,2013-08-15 00:43:00,
2013-08-14 19:48:00,67.2,54.6,30.08,NE,49,1.0,4.0,64,0.00,,,0.00,Wunderground v.1.15,2013-08-15 00:48:00,
2013-08-14 19:53:00,66.8,54.7,30.08,NE,47,1.0,3.0,65,0.00,,,0.00,Wunderground v.1.15,2013-08-15 00:53:00,
2013-08-14 19:58:00,66.6,54.9,30.08,NE,50,1.0,3.0,66,0.00,,,0.00,Wunderground v.1.15,2013-08-15 00:58:00,
2013-08-14 20:03:00,66.3,55.0,30.08,NE,49,2.0,3.0,67,0.00,,,0.00,Wunderground v.1.15,2013-08-15 01:03:00,
2013-08-14 20:08:00,66.0,55.1,30.08,ENE,63,0.0,3.0,68,0.00,,,0.00,Wunderground v.1.15,2013-08-15 01:08:00,
2013-08-14 20:13:00,65.7,55.2,30.08,NE,46,0.0,3.0,69,0.00,,,0.00,Wunderground v.1.15,2013-08-15 01:13:00,
2013-08-14 20:18:00,65.5,55.5,30.08,ENE,57,0.0,3.0,70,0.00,,,0.00,Wunderground v.1.15,2013-08-15 01:18:00,
2013-08-14 20:23:00,65.2,55.6,30.08,NE,56,0.0,1.0,71,0.00,,,0.00,Wunderground v.1.15,2013-08-15 01:23:00,
2013-08-14 20:28:00,64.7,55.8,30.09,ENE,57,0.0,1.0,73,0.00,,,0.00,Wunderground v.1.15,2013-08-15 01:28:00,
2013-08-14 20:33:00,64.1,56.0,30.09,ENE,57,0.0,0.0,75,0.00,,,0.00,Wunderground v.1.15,2013-08-15 01:33:00,
2013-08-14 20:38:00,63.4,55.7,30.09,ENE,57,0.0,0.0,76,0.00,,,0.00,Wunderground v.1.15,2013-08-15 01:38:00,
2013-08-14 20:43:00,62.9,55.6,30.09,ENE,57,0.0,0.0,77,0.00,,,0.00,Wunderground v.1.15,2013-08-15 01:43:00,
2013-08-14 20:48:00,62.2,56.0,30.09,ENE,57,0.0,0.0,80,0.00,,,0.00,Wunderground v.1.15,2013-08-15 01:48:00,
2013-08-14 20:53:00,61.5,56.0,30.09,NE,56,0.0,0.0,82,0.00,,,0.00,Wunderground v.1.15,2013-08-15 01:53:00,
2013-08-14 20:58:00,60.9,55.4,30.09,ENE,57,0.0,0.0,82,0.00,,,0.00,Wunderground v.1.15,2013-08-15 01:58:00,
2013-08-14 21:03:00,60.3,55.1,30.10,ENE,57,0.0,0.0,83,0.00,,,0.00,Wunderground v.1.15,2013-08-15 02:03:00,
2013-08-14 21:08:00,59.7,54.9,30.10,ENE,57,0.0,0.0,84,0.00,,,0.00,Wunderground v.1.15,2013-08-15 02:08:00,
2013-08-14 21:13:00,59.2,54.7,30.10,ENE,57,0.0,0.0,85,0.00,,,0.00,Wunderground v.1.15,2013-08-15 02:13:00,
2013-08-14 21:19:00,59.0,55.1,30.10,NE,56,0.0,0.0,87,0.00,,,0.00,Wunderground v.1.15,2013-08-15 02:19:00,
2013-08-14 21:24:00,58.8,55.3,30.10,NE,56,0.0,0.0,88,0.00,,,0.00,Wunderground v.1.15,2013-08-15 02:24:00,
2013-08-14 21:29:00,58.5,55.0,30.10,ENE,57,0.0,0.0,88,0.00,,,0.00,Wunderground v.1.15,2013-08-15 02:29:00,
2013-08-14 21:34:00,58.3,55.1,30.10,ENE,57,0.0,0.0,89,0.00,,,0.00,Wunderground v.1.15,2013-08-15 02:34:00,
2013-08-14 21:39:00,58.0,54.8,30.10,NE,56,0.0,0.0,89,0.00,,,0.00,Wunderground v.1.15,2013-08-15 02:39:00,
2013-08-14 21:44:00,57.9,55.3,30.11,ENE,57,0.0,0.0,91,0.00,,,0.00,Wunderground v.1.15,2013-08-15 02:44:00,
2013-08-14 21:49:00,58.0,55.7,30.11,ENE,57,0.0,0.0,92,0.00,,,0.00,Wunderground v.1.15,2013-08-15 02:49:00,
2013-08-14 21:54:00,57.9,55.6,30.11,ENE,57,0.0,0.0,92,0.00,,,0.00,Wunderground v.1.15,2013-08-15 02:54:00,
2013-08-14 21:59:00,57.8,55.5,30.11,ENE,57,0.0,0.0,92,0.00,,,0.00,Wunderground v.1.15,2013-08-15 02:59:00,
2013-08-14 22:04:00,57.8,55.5,30.11,ENE,57,0.0,0.0,92,0.00,,,0.00,Wunderground v.1.15,2013-08-15 03:04:00,
2013-08-14 22:09:00,57.7,55.4,30.11,NE,56,0.0,0.0,92,0.00,,,0.00,Wunderground v.1.15,2013-08-15 03:09:00,
2013-08-14 22:14:00,57.5,55.2,30.11,NE,56,0.0,0.0,92,0.00,,,0.00,Wunderground v.1.15,2013-08-15 03:14:00,
2013-08-14 22:19:00,57.2,54.9,30.12,ENE,57,0.0,0.0,92,0.00,,,0.00,Wunderground v.1.15,2013-08-15 03:19:00,
2013-08-14 22:24:00,57.0,54.7,30.12,NE,56,0.0,0.0,92,0.00,,,0.00,Wunderground v.1.15,2013-08-15 03:24:00,
2013-08-14 22:29:00,56.8,54.8,30.12,ENE,57,0.0,0.0,93,0.00,,,0.00,Wunderground v.1.15,2013-08-15 03:29:00,
2013-08-14 22:34:00,56.7,54.7,30.12,NE,56,0.0,0.0,93,0.00,,,0.00,Wunderground v.1.15,2013-08-15 03:34:00,
2013-08-14 22:39:00,56.8,55.1,30.12,NE,56,0.0,0.0,94,0.00,,,0.00,Wunderground v.1.15,2013-08-15 03:39:00,
2013-08-14 22:44:00,56.7,55.0,30.12,NE,56,0.0,0.0,94,0.00,,,0.00,Wunderground v.1.15,2013-08-15 03:44:00,
2013-08-14 22:49:00,56.5,54.8,30.12,ENE,57,0.0,0.0,94,0.00,,,0.00,Wunderground v.1.15,2013-08-15 03:49:00,
2013-08-14 22:54:00,56.4,54.7,30.12,ENE,57,0.0,0.0,94,0.00,,,0.00,Wunderground v.1.15,2013-08-15 03:54:00,
2013-08-14 22:59:00,56.8,55.4,30.12,ENE,57,0.0,0.0,95,0.00,,,0.00,Wunderground v.1.15,2013-08-15 03:59:00,
2013-08-14 23:01:00,56.9,55.5,30.12,ENE,57,0.0,0.0,95,0.00,,,0.00,Wunderground v.1.15,2013-08-15 04:01:00,
2013-08-14 23:06:00,57.0,55.6,30.12,ENE,57,0.0,0.0,95,0.00,,,0.00,Wunderground v.1.15,2013-08-15 04:06:00,
2013-08-14 23:11:00,57.2,55.8,30.12,ENE,57,0.0,0.0,95,0.00,,,0.00,Wunderground v.1.15,2013-08-15 04:11:00,
2013-08-14 23:16:00,57.2,55.8,30.12,NE,56,0.0,0.0,95,0.00,,,0.00,Wunderground v.1.15,2013-08-15 04:16:00,
2013-08-14 23:21:00,57.1,55.4,30.13,ENE,57,0.0,0.0,94,0.00,,,0.00,Wunderground v.1.15,2013-08-15 04:21:00,
2013-08-14 23:26:00,57.0,55.3,30.13,ENE,57,0.0,0.0,94,0.00,,,0.00,Wunderground v.1.15,2013-08-15 04:26:00,
2013-08-14 23:31:00,57.0,55.6,30.13,ENE,57,0.0,0.0,95,0.00,,,0.00,Wunderground v.1.15,2013-08-15 04:31:00,
2013-08-14 23:36:00,57.2,55.8,30.12,NE,56,0.0,0.0,95,0.00,,,0.00,Wunderground v.1.15,2013-08-15 04:36:00,
2013-08-14 23:41:00,57.1,55.4,30.12,ENE,57,0.0,0.0,94,0.00,,,0.00,Wunderground v.1.15,2013-08-15 04:41:00,
2013-08-14 23:46:00,57.1,55.7,30.12,ENE,57,0.0,0.0,95,0.00,,,0.00,Wunderground v.1.15,2013-08-15 04:46:00,
2013-08-14 23:51:00,57.2,55.8,30.12,ENE,57,0.0,0.0,95,0.00,,,0.00,Wunderground v.1.15,2013-08-15 04:51:00,
2013-08-14 23:56:00,57.3,55.9,30.12,ENE,58,0.0,0.0,95,0.00,,,0.00,Wunderground v.1.15,2013-08-15 04:56:00,